Location: Chagrin Falls Park
(41.4139°N, 81.3865°W)
Time: 04:01:13
(UTC+00:00)

STARLINK-2720 - Visible Passes

Search period start: 06 December 2021 00:00
Search period end: 16 December 2021 00:00
Orbit: 545 x 549 km, 53.1° (Epoch: 05 December)

Date Brightness Start Highest point End Pass type
(mag) Time Alt. Az. Time Alt. Az. Time Alt. Az.
06 Dec 5.6 23:35:17 10° NW 23:37:55 16° N 23:38:17 16° N visible
07 Dec 5.5 23:29:06 10° NW 23:31:48 17° N 23:32:15 16° NNE visible
08 Dec 5.4 23:22:52 10° NW 23:25:40 17° N 23:26:16 17° NNE visible
09 Dec 5.3 23:16:35 10° NNW 23:19:32 19° NNE 23:20:19 18° NNE visible
10 Dec 6.6 00:55:47 10° NW 00:55:55 11° NW 00:55:55 11° NW visible
10 Dec 5.1 23:10:15 10° NW 23:13:23 20° NNE 23:14:25 19° NE visible
11 Dec 6.4 00:49:25 10° NW 00:50:02 14° NW 00:50:02 14° NW visible
11 Dec 5.0 23:03:53 10° NW 23:07:12 23° NNE 23:08:37 19° NE visible
12 Dec 6.0 00:43:04 10° NW 00:44:15 18° NW 00:44:15 18° NW visible
12 Dec 4.8 22:57:30 10° NW 23:01:00 26° NNE 23:02:57 18° ENE visible
13 Dec 5.6 00:36:44 10° NW 00:38:35 25° WNW 00:38:35 25° WNW visible
13 Dec 4.5 22:51:06 10° NW 22:54:47 30° NNE 22:57:28 16° E visible
14 Dec 5.0 00:30:27 10° WNW 00:33:06 36° W 00:33:06 36° W visible
14 Dec 4.3 22:44:41 10° NW 22:48:32 36° NNE 22:52:11 11° E visible
15 Dec 4.8 00:24:12 10° WNW 00:27:51 40° SW 00:27:51 40° SW visible
15 Dec 4.0 22:38:16 10° NW 22:42:15 44° NNE 22:46:12 10° ESE visible
